• Em Portugal
  • Lista de países
  • Para 7 dias
  • Temperatura da água
  • Mapas de satélite
  • Mapa do tempo
  • Widgets de tempo
  • user-avatar
    Iniciar Sessão

    Previsão horária em Saida

    Hoje, 24 Setembro, Segunda-feira

    Tempo Temperatura Precipitação Vento Pressão Humidade
    00:00 +28°C° 0 mm 2 m/s 761 mmHg 69%
    01:00 +28°C° 0 mm 2 m/s 761 mmHg 69%
    02:00 +27°C° 0 mm 2 m/s 760 mmHg 69%
    03:00 +27°C° 0 mm 1 m/s 760 mmHg 69%
    04:00 +26°C° 0 mm 1 m/s 760 mmHg 69%
    05:00 +26°C° 0 mm 1 m/s 760 mmHg 69%
    06:00 +28°C° 0 mm 1 m/s 760 mmHg 61%
    07:00 +30°C° 0 mm 1 m/s 760 mmHg 53%
    08:00 +32°C° 0 mm 1 m/s 760 mmHg 45%
    09:00 +33°C° 0 mm 1 m/s 760 mmHg 40%
    10:00 +35°C° 0 mm 2 m/s 760 mmHg 35%
    11:00 +37°C° 0 mm 2 m/s 760 mmHg 30%
    12:00 +37°C° 0 mm 3 m/s 760 mmHg 31%
    13:00 +37°C° 0 mm 3 m/s 760 mmHg 33%
    14:00 +37°C° 0 mm 3 m/s 759 mmHg 34%
    15:00 +36°C° 0 mm 3 m/s 759 mmHg 38%
    16:00 +35°C° 0 mm 3 m/s 759 mmHg 43%
    17:00 +34°C° 0 mm 3 m/s 758 mmHg 47%
    18:00 +32°C° 0 mm 2 m/s 758 mmHg 52%
    19:00 +31°C° 0 mm 2 m/s 759 mmHg 58%
    20:00 +30°C° 0 mm 1 m/s 759 mmHg 63%
    21:00 +30°C° 0 mm 1 m/s 759 mmHg 64%
    22:00 +29°C° 0 mm 1 m/s 759 mmHg 65%
    23:00 +29°C° 0 mm 1 m/s 759 mmHg 66%

    Amanhã, 25 Setembro, Terça-feira

    Tempo Temperatura Precipitação Vento Pressão Humidade
    00:00 +28°C° 0 mm 1 m/s 759 mmHg 68%
    01:00 +28°C° 0 mm 1 m/s 759 mmHg 70%
    02:00 +27°C° 0 mm 1 m/s 759 mmHg 72%
    03:00 +27°C° 0 mm 1 m/s 759 mmHg 73%
    04:00 +24°C° 0 mm 0 m/s 758 mmHg 74%
    05:00 +24°C° 0 mm 0 m/s 758 mmHg 75%
    06:00 +26°C° 0 mm 0 m/s 759 mmHg 66%
    07:00 +30°C° 0 mm 1 m/s 759 mmHg 56%
    08:00 +31°C° 0 mm 1 m/s 759 mmHg 47%
    09:00 +33°C° 0 mm 1 m/s 759 mmHg 42%
    10:00 +35°C° 0 mm 2 m/s 759 mmHg 37%
    11:00 +36°C° 0 mm 3 m/s 758 mmHg 32%
    12:00 +36°C° 0 mm 3 m/s 758 mmHg 35%
    13:00 +36°C° 0 mm 3 m/s 758 mmHg 37%
    14:00 +36°C° 0 mm 3 m/s 757 mmHg 40%
    15:00 +35°C° 0 mm 3 m/s 757 mmHg 45%
    16:00 +34°C° 0 mm 2 m/s 757 mmHg 50%
    17:00 +32°C° 0 mm 2 m/s 757 mmHg 55%
    18:00 +31°C° 0 mm 1 m/s 757 mmHg 61%
    19:00 +30°C° 0 mm 1 m/s 757 mmHg 66%
    20:00 +29°C° 0 mm 1 m/s 758 mmHg 72%
    21:00 +29°C° 0 mm 1 m/s 758 mmHg 74%
    22:00 +28°C° 0 mm 1 m/s 758 mmHg 76%
    23:00 +28°C° 0 mm 1 m/s 758 mmHg 79%

    Depois de amanhã, 26 Setembro, Quarta-feira

    Tempo Temperatura Precipitação Vento Pressão Humidade
    00:00 +27°C° 0 mm 1 m/s 757 mmHg 81%
    01:00 +27°C° 0 mm 1 m/s 757 mmHg 82%
    02:00 +26°C° 0 mm 1 m/s 757 mmHg 84%
    03:00 +26°C° 0 mm 1 m/s 757 mmHg 85%
    04:00 +26°C° 0 mm 2 m/s 757 mmHg 86%
    05:00 +25°C° 0 mm 2 m/s 757 mmHg 86%
    06:00 +27°C° 0 mm 2 m/s 757 mmHg 78%
    07:00 +28°C° 0 mm 2 m/s 757 mmHg 69%
    08:00 +30°C° 0 mm 2 m/s 758 mmHg 60%
    09:00 +31°C° 0 mm 3 m/s 757 mmHg 54%
    10:00 +33°C° 0 mm 3 m/s 757 mmHg 48%
    11:00 +34°C° 0 mm 4 m/s 757 mmHg 41%
    12:00 +34°C° 0 mm 4 m/s 757 mmHg 43%
    13:00 +34°C° 0 mm 4 m/s 757 mmHg 45%
    14:00 +34°C° 0 mm 4 m/s 756 mmHg 46%
    15:00 +34°C° 0 mm 3 m/s 756 mmHg 51%
    16:00 +33°C° 0 mm 3 m/s 756 mmHg 55%
    17:00 +31°C° 0 mm 3 m/s 756 mmHg 60%
    18:00 +30°C° 0 mm 2 m/s 757 mmHg 64%
    19:00 +29°C° 0 mm 2 m/s 757 mmHg 69%
    20:00 +28°C° 0 mm 1 m/s 757 mmHg 74%
    21:00 +28°C° 0 mm 1 m/s 757 mmHg 77%
    22:00 +27°C° 0 mm 1 m/s 757 mmHg 79%
    23:00 +27°C° 0 mm 1 m/s 757 mmHg 81%

    27 Setembro, Quinta-feira

    Tempo Temperatura Precipitação Vento Pressão Humidade
    00:00 +26°C° 0 mm 1 m/s 757 mmHg 81%
    01:00 +26°C° 0 mm 1 m/s 757 mmHg 81%
    02:00 +25°C° 0 mm 1 m/s 757 mmHg 81%
    03:00 +25°C° 0 mm 1 m/s 758 mmHg 80%
    04:00 +25°C° 0 mm 1 m/s 758 mmHg 79%
    05:00 +24°C° 0 mm 1 m/s 758 mmHg 78%
    06:00 +26°C° 0 mm 1 m/s 758 mmHg 69%
    07:00 +27°C° 0 mm 1 m/s 759 mmHg 60%
    08:00 +29°C° 0 mm 1 m/s 759 mmHg 51%
    09:00 +30°C° 0 mm 2 m/s 759 mmHg 45%
    10:00 +32°C° 0 mm 2 m/s 759 mmHg 40%
    11:00 +34°C° 0 mm 2 m/s 759 mmHg 34%
    12:00 +34°C° 0 mm 2 m/s 759 mmHg 36%
    13:00 +34°C° 0 mm 2 m/s 759 mmHg 37%
    14:00 +34°C° 0 mm 2 m/s 758 mmHg 39%
    15:00 +34°C° 0 mm 2 m/s 759 mmHg 44%
    16:00 +32°C° 0 mm 2 m/s 759 mmHg 48%
    17:00 +31°C° 0 mm 2 m/s 759 mmHg 53%
    18:00 +30°C° 0 mm 2 m/s 759 mmHg 58%
    19:00 +29°C° 0 mm 1 m/s 760 mmHg 63%
    20:00 +29°C° 0 mm 1 m/s 760 mmHg 69%
    21:00 +28°C° 0 mm 1 m/s 760 mmHg 71%
    22:00 +28°C° 0 mm 1 m/s 760 mmHg 73%
    23:00 +27°C° 0 mm 1 m/s 760 mmHg 75%

    28 Setembro, Sexta-feira

    Tempo Temperatura Precipitação Vento Pressão Humidade
    00:00 +27°C° 0 mm 1 m/s 760 mmHg 76%
    01:00 +26°C° 0 mm 1 m/s 760 mmHg 77%
    02:00 +26°C° 0 mm 1 m/s 760 mmHg 78%
    03:00 +26°C° 0 mm 1 m/s 760 mmHg 77%
    04:00 +25°C° 0 mm 1 m/s 761 mmHg 76%
    05:00 +25°C° 0 mm 1 m/s 761 mmHg 75%
    06:00 +27°C° 0 mm 1 m/s 761 mmHg 65%
    07:00 +29°C° 0 mm 1 m/s 761 mmHg 55%
    08:00 +30°C° 0 mm 1 m/s 761 mmHg 45%
    09:00 +32°C° 0 mm 1 m/s 761 mmHg 41%
    10:00 +34°C° 0 mm 2 m/s 761 mmHg 37%
    11:00 +35°C° 0 mm 2 m/s 761 mmHg 32%
    12:00 +35°C° 0 mm 3 m/s 761 mmHg 34%
    13:00 +35°C° 0 mm 3 m/s 760 mmHg 36%
    14:00 +36°C° 0 mm 3 m/s 760 mmHg 38%
    15:00 +35°C° 0 mm 3 m/s 760 mmHg 43%
    16:00 +34°C° 0 mm 3 m/s 760 mmHg 48%
    17:00 +33°C° 0 mm 3 m/s 760 mmHg 53%
    18:00 +31°C° 0 mm 2 m/s 760 mmHg 58%
    19:00 +30°C° 0 mm 2 m/s 761 mmHg 63%
    20:00 +29°C° 0 mm 2 m/s 761 mmHg 68%
    21:00 +29°C° 0 mm 2 m/s 761 mmHg 70%
    22:00 +28°C° 0 mm 2 m/s 761 mmHg 71%
    23:00 +28°C° 0 mm 1 m/s 761 mmHg 72%

    29 Setembro, Sábado

    Tempo Temperatura Precipitação Vento Pressão Humidade
    00:00 +28°C° 0 mm 1 m/s 761 mmHg 70%
    01:00 +27°C° 0 mm 2 m/s 760 mmHg 67%
    02:00 +27°C° 0 mm 2 m/s 760 mmHg 65%
    03:00 +27°C° 0 mm 2 m/s 760 mmHg 63%
    04:00 +27°C° 0 mm 2 m/s 760 mmHg 61%
    05:00 +26°C° 0 mm 2 m/s 760 mmHg 60%
    06:00 +28°C° 0 mm 2 m/s 761 mmHg 52%
    07:00 +30°C° 0 mm 2 m/s 761 mmHg 45%
    08:00 +32°C° 0 mm 2 m/s 761 mmHg 37%
    09:00 +34°C° 0 mm 2 m/s 761 mmHg 34%
    10:00 +35°C° 0 mm 3 m/s 761 mmHg 30%
    11:00 +37°C° 0 mm 3 m/s 760 mmHg 26%
    12:00 +37°C° 0 mm 4 m/s 760 mmHg 27%
    13:00 +37°C° 0 mm 4 m/s 759 mmHg 27%
    14:00 +39°C° 0 mm 5 m/s 759 mmHg 28%
    15:00 +37°C° 0 mm 5 m/s 758 mmHg 30%
    16:00 +36°C° 0 mm 5 m/s 758 mmHg 32%
    17:00 +36°C° 0 mm 5 m/s 758 mmHg 34%
    18:00 +35°C° 0 mm 4 m/s 759 mmHg 38%
    19:00 +34°C° 0 mm 4 m/s 759 mmHg 41%
    20:00 +33°C° 0 mm 3 m/s 759 mmHg 44%
    21:00 +31°C° 0 mm 3 m/s 759 mmHg 43%
    22:00 +31°C° 0 mm 3 m/s 759 mmHg 43%
    23:00 +30°C° 0 mm 3 m/s 759 mmHg 42%
    Mostrar mais

    3.3.7123123